Flag for U.S.A. Weather past 2 weeks in Montpelier, Vermont, U.S.A.

Now
26 °F

Clear.


Feels Like: 26 °F
Forecast: 25 / 60 °F
Wind: No wind

Location: Knapp State Airport


UV Index: 3 (Moderate)

Visibility: 10 mi


Pressure: 30.52 "Hg

Humidity: 81%

Dew point: 21 °F

Location of MontpelierLocation

Historic Weather in Montpelier

°F

Montpelier temperature yesterday

Maximum temperature yesterday: 45 °F (at 4:51 PM)
Minimum temperature yesterday: 30 °F (at 3:51 AM)
Average temperature yesterday: 38 °F

Past Weeks' High & Low Weather Summary

 TemperatureHumidityPressure
High76 °F (Apr 14, 2:51 PM)100% (Apr 8, 12:55 AM)30.85 "Hg (Apr 8, 12:55 AM)
Low14 °F (Apr 17, 5:51 AM)26% (Apr 17, 4:51 PM)29.30 "Hg (Apr 8, 3:51 PM)
Average40 °F65%30.06 "Hg
* Reported Apr 5 1:58 AM — Apr 20 1:51 AM, Montpelier, Weather by CustomWeather, © 2014

Note: Actual official high and low records may vary slightly from our data, if they occured in-between our weather recording intervals... More about our weather records

Advertising

Historic Weather Conditions — Data for Previous 24 hours

 ConditionsComfort  
Time TempWeatherWind HumidityBarometerVisibility
1:51 AM
Apr 20
26 °FClear.No wind81%30.52 "Hg10 mi
12:51 AM29 °FClear.No wind72%30.51 "Hg10 mi
11:51 PM
Apr 19
33 °FClear.3 mph61%30.51 "Hg10 mi
10:51 PM35 °FClear.5 mph56%30.48 "Hg10 mi
9:51 PM36 °FClear.3 mph54%30.47 "Hg10 mi
8:51 PM39 °FClear.6 mph48%30.46 "Hg10 mi
7:51 PM40 °FSunny.12 mph51%30.42 "Hg10 mi
6:51 PM42 °FScattered clouds.12 mph49%30.41 "Hg10 mi
5:51 PM44 °FOvercast.9 mph47%30.40 "Hg10 mi
4:51 PM45 °FBroken clouds.15 mph49%30.39 "Hg10 mi
3:51 PM41 °FOvercast.7 mph62%30.39 "Hg10 mi
2:51 PM39 °FCloudy.14 mph70%30.38 "Hg10 mi
1:51 PM39 °FLight rain. Mostly cloudy.13 mph86%30.38 "Hg8 mi
12:51 PM40 °FMostly cloudy.18 mph80%30.36 "Hg10 mi
11:51 AM39 °FMostly cloudy.6 mph86%30.34 "Hg10 mi
11:02 AM40 °FMostly cloudy.9 mph86%30.29 "Hg10 mi
10:51 AM41 °FCloudy.13 mph86%30.32 "Hg10 mi
10:02 AM41 °FLight rain. Cloudy.13 mph89%30.27 "Hg10 mi
9:51 AM40 °FMostly cloudy.10 mph89%30.31 "Hg10 mi
8:51 AM39 °FOvercast.6 mph89%30.27 "Hg10 mi
7:51 AM38 °FLight rain. Overcast.12 mph86%30.26 "Hg7 mi
6:51 AM35 °FPartly cloudy.3 mph75%30.22 "Hg10 mi
5:51 AM36 °FPassing clouds.6 mph70%30.19 "Hg10 mi
4:51 AM32 °FPartly cloudy.No wind82%30.19 "Hg10 mi
3:51 AM30 °FPassing clouds.3 mph82%30.18 "Hg10 mi
2:51 AM35 °FPassing clouds.No wind67%30.18 "Hg10 mi
Weather by CustomWeather, © 2014

See weather overview